Change the Weather History Date:

Friday, February 1, 2013

  Actual Average Record
Temperature  
Mean Temperature -3 °F -  
Max Temperature 3 °F 26 °F 43 °F (1987)
Min Temperature -9 °F 3 °F -26 °F (1959)
Degree Days  
Heating Degree Days 68    
Moisture  
Dew Point -9 °F    
Average Humidity 70    
Maximum Humidity 85    
Minimum Humidity 52    
Precipitation  
Precipitation 0.01 in - - ()
Sea Level Pressure  
Sea Level Pressure 30.20 in    
Wind  
Wind Speed 8 mph (WSW)    
Max Wind Speed 14 mph    
Max Gust Speed 18 mph    
Visibility 6 miles    
Events Snow    
Averages and records for this station are not official NWS values.
T = Trace of Precipitation, MM = Missing Value Source: NWS Daily Summary

Daily Weather History Graph

Daily Weather History Graph

Search for Another Location

Airport or City:

Trip Planner

Search our weather history database for the weather conditions in past years. The results will help you decide how hot, cold, wet, or windy it might be!

Date:

Astronomy

Feb. 01, 2013 Rise Set
Actual Time 7:17 AM CST 5:09 PM CST
Civil Twilight 6:46 AM CST 5:40 PM CST
Nautical Twilight 6:11 AM CST 6:14 PM CST
Astronomical Twilight 5:37 AM CST 6:48 PM CST
Moon 11:33 PM CST (2/1) 9:35 AM CST (2/1)
Length of Visible Light 10h 53m
Length of Day
9h 52m
Waning Gibbous, 70% of the Moon is Illuminated
Feb 1
Waning Gibbous
Feb 3
Last Quarter
Feb 10
New
Feb 17
First Quarter
Feb 25
Full

Hourly Weather History & Observations

Time (CST) Temp. Windchill Dew Point Humidity Pressure Visibility Wind Dir Wind Speed Gust Speed Precip Events Conditions
12:54 AM -2.9 °F -19.8 °F -9.9 °F 72% 30.21 in 10.0 mi West 10.4 mph - N/A   Clear
1:54 AM -4.0 °F -20.2 °F -11.0 °F 72% 30.23 in 10.0 mi West 9.2 mph - N/A   Clear
2:54 AM -5.1 °F -23.5 °F -11.9 °F 72% 30.25 in 10.0 mi West 11.5 mph 18.4 mph N/A   Clear
3:54 AM -6.0 °F -25.5 °F -13.0 °F 72% 30.27 in 10.0 mi WNW 12.7 mph 18.4 mph N/A   Clear
4:54 AM -8.0 °F -27.1 °F -15.0 °F 71% 30.30 in 10.0 mi West 11.5 mph - N/A   Clear
5:54 AM -9.0 °F -26.4 °F -17.0 °F 68% 30.31 in 10.0 mi WNW 9.2 mph - N/A   Clear
8:54 AM -9.9 °F -31.3 °F -18.9 °F 65% 30.35 in 10.0 mi WNW 13.8 mph 18.4 mph N/A   Clear
10:54 AM -6.0 °F -21.5 °F -17.0 °F 59% 30.34 in 10.0 mi West 8.1 mph - N/A   Clear
11:54 AM -2.9 °F -16.5 °F -16.1 °F 54% 30.31 in 10.0 mi WNW 6.9 mph - N/A   Clear
12:54 PM -2.0 °F -17.7 °F -14.1 °F 57% 30.29 in 10.0 mi SW 9.2 mph - N/A   Clear
1:54 PM 1.0 °F -15.8 °F -13.0 °F 52% 30.27 in 10.0 mi WSW 11.5 mph 16.1 mph N/A   Clear
2:54 PM 3.0 °F -11.5 °F -11.0 °F 52% 30.25 in 10.0 mi WSW 9.2 mph 18.4 mph N/A   Clear
4:54 PM 1.9 °F -11.8 °F -11.0 °F 55% 30.22 in 10.0 mi WSW 8.1 mph - N/A   Clear
5:54 PM 1.9 °F -7.6 °F -11.0 °F 55% 30.22 in 10.0 mi WSW 4.6 mph - N/A   Scattered Clouds
6:54 PM 1.9 °F -9.2 °F -9.9 °F 58% 30.23 in 10.0 mi WSW 5.8 mph - N/A   Overcast
7:54 PM 1.9 °F -9.2 °F -9.0 °F 60% 30.23 in 8.0 mi WSW 5.8 mph - N/A   Overcast
8:21 PM 1.4 °F -12.5 °F -5.8 °F 72% 30.12 in 2.5 mi SW 8.1 mph - 0.00 in Snow Light Snow
8:31 PM 1.4 °F -9.9 °F -5.8 °F 72% 30.12 in 2.0 mi SW 5.8 mph - 0.00 in Snow Light Snow
8:54 PM 1.0 °F -8.7 °F -5.1 °F 75% 30.21 in 2.0 mi SW 4.6 mph - 0.00 in Snow Light Snow
9:02 PM 1.4 °F -9.9 °F -4.0 °F 78% 30.11 in 1.8 mi SW 5.8 mph - 0.00 in Snow Light Snow
9:32 PM 1.4 °F -9.9 °F -4.0 °F 78% 30.11 in 1.0 mi SW 5.8 mph - 0.00 in Snow Light Snow
9:50 PM 1.4 °F - -4.0 °F 78% 30.11 in 1.2 mi Calm Calm - 0.01 in Snow Light Snow
9:54 PM 1.9 °F -5.6 °F -2.9 °F 80% 30.20 in 1.5 mi SSW 3.5 mph - 0.01 in Snow Light Snow
10:05 PM 1.4 °F -8.3 °F -4.0 °F 78% 30.11 in 2.5 mi South 4.6 mph - 0.00 in Snow Light Snow
10:14 PM 1.4 °F -9.9 °F -4.0 °F 78% 30.10 in 3.0 mi SSW 5.8 mph - 0.00 in Snow Light Snow
10:27 PM 1.4 °F -8.3 °F -2.2 °F 85% 30.10 in 3.0 mi SSW 4.6 mph - 0.00 in Snow Light Snow
10:54 PM 1.9 °F -9.2 °F -2.9 °F 80% 30.19 in 3.0 mi SSW 5.8 mph - 0.00 in Snow Light Snow
11:37 PM 1.4 °F -8.3 °F -2.2 °F 85% 30.09 in 1.8 mi SSW 4.6 mph - 0.00 in Snow Light Snow
11:51 PM 1.4 °F - -2.2 °F 85% 30.08 in 2.5 mi Calm Calm - 0.00 in Snow Light Snow
11:54 PM 1.9 °F - -2.0 °F 83% 30.17 in 3.0 mi Calm Calm - 0.00 in Snow Light Snow